Lexington Weather

Lexington, Massachusetts, USA

29°F
1/25/2021 10:56am 
  • Lexington Conditions: Clear
  • Temperature: 28.9°F / -1.7°CWarmer 4.1°F than last hour.
  • Dew Point: 10.8°FIncreased 1.1°Fsince last hour.
  • Relative Humidity: 46%Decreased 6.0% since last hour.
  • Wind: Wind from NW NW Calm, 10-min avg: 2 mph, gust: 8 mph
  • Barometer: 30.01 inFalling 0.02  inHg/hr Falling Slowly
  • Visibility: 10 miles
  • Snow Today: 0.0 in
  •   

Regional Weather Roundup
for Boston / Norton, MA

        
000
ASUS41 KBOX 231704
RWRBOX

REGIONAL WEATHER ROUNDUP
NATIONAL WEATHER SERVICE BOSTON/NORTON MA
1200 PM EST SAT JAN 23 2021

NOTE:  "FAIR" INDICATES FEW OR NO CLOUDS BELOW 12,000 FEET WITH NO 
SIGNIFICANT WEATHER AND/OR OBSTRUCTIONS TO VISIBILITY.

MAZALL-231800-
EASTERN MASSACHUSETTS
  
CITY           SKY/WX    TMP DP  RH WIND       PRES   REMARKS
BOSTON         MOSUNNY   29   6  38 W17G29    29.85F WCI  17          
BEVERLY        PTSUNNY   27  11  51 NW22G28   29.84F WCI  13          
LAWRENCE       PTSUNNY   25   9  50 NW13G26   29.87F WCI  14          
BEDFORD        MOSUNNY   29   7  39 NW16G28   29.85F WCI  17          
BLUE HILL        N/A     28   9  44 W13G24    29.80F WCI  17          
NORWOOD        MOSUNNY   32   8  36 NW14G23   29.86F WCI  22          
MARSHFIELD     SUNNY     32   9  37 NW13G23   29.83F WCI  22          
PLYMOUTH       CLOUDY    30  11  45 W16G25    29.83F WCI  19          
TAUNTON        CLOUDY    33  11  39 W17G24    29.84F WCI  22          
NEW BEDFORD    PTSUNNY   33  12  41 W12G26    29.84F WCI  24          
$$

MAZALL-231800-
CAPE COD AND THE ISLANDS
  
CITY           SKY/WX    TMP DP  RH WIND       PRES   REMARKS
FALMOUTH       NOT AVBL                                               
HYANNIS        CLOUDY    32  13  45 NW13G24   29.79F WCI  22          
CHATHAM        FLURRIES  31  17  56 MISG      29.82F                  
PROVINCETOWN   PTSUNNY   30  17  58 NW22G29   29.83F WCI  17          
NANTUCKET      MOSUNNY   32  15  49 NW17      29.82F WCI  21          
MARTHAS VNYRD  MOSUNNY   34  13  41 NW18G26   29.83F WCI  23          
$$
 
MAZALL-231800-
CENTRAL AND WESTERN MASSACHUSETTS
  
CITY           SKY/WX    TMP DP  RH WIND       PRES   REMARKS
WORCESTER      SUNNY     23   7  50 W20G30    29.82F WCI   8          
FITCHBURG      SUNNY     26   8  46 NW18G29   29.87F WCI  13          
ORANGE         MOSUNNY   24   6  46 W16G25    29.90F WCI  11          
SPRINGFIELD    NOT AVBL                                               
WESTFIELD      SUNNY     26   6  42 NW21G28   29.95F WCI  12          
NORTH ADAMS    CLOUDY    20   5  52 W8        29.97F WCI  10          
PITTSFIELD     PTSUNNY   17   4  56 NW22G35   29.92F WCI   0          
$$
 
RIZALL-231800-
RHODE ISLAND
  
CITY           SKY/WX    TMP DP  RH WIND       PRES   REMARKS
PROVIDENCE     MOSUNNY   31  10  41 NW21G29   29.87F WCI  18          
NEWPORT        SUNNY     30  11  45 NW15G25   29.85F WCI  19          
BLOCK ISLAND   SUNNY     29  10  45 NW17G26   29.89F WCI  17          
SMITHFIELD     MOSUNNY   29  11  47 NW12G26   29.85F WCI  19          
WESTERLY       SUNNY     28   7  41 W13G25    29.90F WCI  17          
$$
 
CTZALL-231800-
CONNECTICUT
  
CITY           SKY/WX    TMP DP  RH WIND       PRES   REMARKS
BRADLEY INTL   MOSUNNY   26   6  42 NW21G26   29.96F WCI  12          
HARTFORD       SUNNY     29   7  39 NW20G26   29.98F WCI  16          
BRIDGEPORT     NOT AVBL                                               
DANBURY        MOSUNNY   29   6  38 NW14G26   29.99F WCI  18          
GROTON         SUNNY     31   8  38 NW29G37   29.91F WCI  16          
NEW HAVEN      MOSUNNY   31  11  43 NW18G28   29.97F WCI  19          
CHESTER        FAIR      28   5  37 NW16G29   29.92F WCI  17          
MERIDEN        MOSUNNY   29   7  39 NW13G28   29.97F WCI  19          
WILLIMANTIC    SUNNY     27   8  44 NW21G29   29.93F WCI  13          
OXFORD         PTSUNNY   26   9  48 NW16G29   29.95F WCI  14          
$$

MEZ002-015-021-024-NHZ003-005-008-011-012-014-VTZ005-008-231800-
NORTHERN NEW ENGLAND
  
CITY           SKY/WX    TMP DP  RH WIND       PRES   REMARKS
PORTLAND ME    MOSUNNY   26   8  46 NW12G18   29.82F WCI  16          
BANGOR ME      MOSUNNY   25   8  48 NW13G28   29.74F WCI  14          
CONCORD NH     SUNNY     23   3  42 NW20G37   29.87F WCI   8          
MANCHESTER NH  PTSUNNY   24   7  48 NW18G31   29.86F WCI  10          
NASHUA NH      PTSUNNY   25   7  46 W18G31    29.88F WCI  11          
PORTSMOUTH NH  NOT AVBL                                               
JAFFREY NH     MOSUNNY   20   4  50 W10G23    29.83F WCI   9          
KEENE NH       MOSUNNY   23   7  50 W12G17    29.91F WCI  12          
BURLINGTON VT  PTSUNNY   14   1  56 NW13      30.02F WCI   0          
MT. WASHINGTON DRFTSNOW -11 -22  58 W45G56      N/A  VSB 1/16WCI -46  
$$

NYZ052-076-231800-
EASTERN NEW YORK
  
CITY           SKY/WX    TMP DP  RH WIND       PRES   REMARKS
ALBANY         MOSUNNY   18   5  57 W20G33    30.05F WCI   2          
NEW YORK CITY  PTSUNNY   32   9  38 NW22G33   30.04F WCI  19          
$$
 
ANZALL-231800-
MARINE OBSERVATIONS
  
STATION/POSITION TIME  TEMP    WIND        PRES    VSBY  WAVE
                       AIR SEA DIR/SP/G                  HT/PER
                 (UTC) (F)     (DEG/KT/KT) (MB)    (MI)  (FT/S)
BOSTON BUOY      1640   29 43  290/ 19/ 25 1011.3F
BUZZARDS BAY     1600          310/ 23/ 28 1012.5F
NANTUCKET SOUND  1640      40  300/ 16/ 21   N/A
MASS BAY-STELLWA 1604   28     300/ 21/ 29 1009.8F  1 7/8  3/ 3
ISLE OF SHOALS   1600   24     310/ 22/ 27 1010.2R
S OF BLOCK IS    1626      48                N/A           8/ 6
$$

......................KEY.........................
  SKY/WX - SKY CONDITION/PRESENT WEATHER
  TMP    - TEMPERATURE IN FAHRENHEIT
  DWPT   - DEWPOINT IN FAHRENHEIT
  RH     - RELATIVE HUMIDITY IN PERCENT
  WIND   - DIRECTION AND SPEED IN MPH
  PRES   - MEAN SEA LEVEL PRESSURE IN INCHES OF HG
  WCI    - WIND CHILL INDEX
  VSB    - VISIBILITY IN MILES
  HX     - HEAT INDEX
  TC     - TEMPERATURE IN CELSIUS
  VRB    - VARIABLE WIND DIRECTION
  N/A    - NOT AVAILABLE
  
      

Other recent Regional Weather Roundups

Mon Jan 25, 6:04am

Mon Jan 25, 5:04am

Mon Jan 25, 4:04am

Mon Jan 25, 3:04am

Mon Jan 25, 2:04am

Mon Jan 25, 1:04am

Sun Jan 24, 11:04pm

Sun Jan 24, 10:04pm

Sun Jan 24, 9:04pm

Sun Jan 24, 6:04pm

Sun Jan 24, 5:04pm

Sun Jan 24, 4:05pm

Sun Jan 24, 3:05pm

Sun Jan 24, 2:05pm

Sun Jan 24, 1:04pm

Sun Jan 24, 12:04pm

Sun Jan 24, 11:04am

Sun Jan 24, 10:04am

Sun Jan 24, 9:04am

Sun Jan 24, 8:04am

Sun Jan 24, 7:04am

Sun Jan 24, 6:04am

Sun Jan 24, 5:04am

Sun Jan 24, 4:04am

Sun Jan 24, 3:04am

Sun Jan 24, 2:04am

Sun Jan 24, 1:04am

Sun Jan 24, 12:04am

Sat Jan 23, 11:04pm

Sat Jan 23, 10:04pm

Sat Jan 23, 9:04pm

Sat Jan 23, 8:04pm

Sat Jan 23, 7:04pm

Sat Jan 23, 6:04pm

Sat Jan 23, 5:04pm

Sat Jan 23, 4:05pm

Sat Jan 23, 3:05pm

Sat Jan 23, 2:05pm

Sat Jan 23, 11:04am

Sat Jan 23, 10:04am

Sat Jan 23, 9:04am

Sat Jan 23, 8:04am

Sat Jan 23, 7:04am

Sat Jan 23, 6:04am

Sat Jan 23, 5:04am

Sat Jan 23, 4:04am

Meta data:

ID: 630e211f-3b4f-4488-b2f1-0c2636f440c1
Link: https://api.weather.gov/products/630e211f-3b4f-4488-b2f1-0c2636f440c1